Time,TemperatureF,DewpointF,PressureIn,WindDirection,WindDirectionDegrees,WindSpeedMPH,WindSpeedGustMPH,Humidity,HourlyPrecipIn,Conditions,Clouds,dailyrainin,SoftwareType,DateUTC
2013-03-01 00:01:00,37.3,26.2,30.13,NNE,13,0.0,0.0,64,0.00,CLR,,0.00,WeatherDisplay:10.37,2013-03-01 06:01:00,
2013-03-01 00:06:00,37.3,26.6,30.12,NNE,13,0.0,0.0,65,0.00,CLR,,0.00,WeatherDisplay:10.37,2013-03-01 06:06:00,
2013-03-01 00:11:00,37.2,26.5,30.12,NNE,13,0.0,0.0,65,0.00,CLR,,0.00,WeatherDisplay:10.37,2013-03-01 06:11:00,
2013-03-01 00:16:00,37.2,27.2,30.13,NNE,13,0.0,0.0,67,0.00,CLR,,0.00,WeatherDisplay:10.37,2013-03-01 06:16:00,
2013-03-01 00:21:00,37.2,26.5,30.13,NNE,13,0.0,0.0,65,0.00,CLR,,0.00,WeatherDisplay:10.37,2013-03-01 06:21:00,
2013-03-01 00:26:00,37.2,26.5,30.13,NNE,13,0.0,0.0,65,0.00,CLR,,0.00,WeatherDisplay:10.37,2013-03-01 06:26:00,
2013-03-01 00:31:00,37.2,27.2,30.12,NNE,13,0.0,0.0,67,0.00,CLR,,0.00,WeatherDisplay:10.37,2013-03-01 06:31:00,
2013-03-01 00:36:00,37.2,27.2,30.12,NNE,13,0.0,0.0,67,0.00,CLR,,0.00,WeatherDisplay:10.37,2013-03-01 06:36:00,
2013-03-01 00:41:00,37.2,26.9,30.12,ENE,58,3.5,3.5,66,0.00,CLR,,0.00,WeatherDisplay:10.37,2013-03-01 06:41:00,
2013-03-01 00:46:00,37.2,26.9,30.12,ENE,58,0.0,0.0,66,0.00,CLR,,0.00,WeatherDisplay:10.37,2013-03-01 06:46:00,
2013-03-01 00:51:00,37.2,27.2,30.12,ENE,58,0.0,0.0,67,0.00,CLR,,0.00,WeatherDisplay:10.37,2013-03-01 06:51:00,
2013-03-01 00:56:00,37.2,27.2,30.13,ENE,58,0.0,0.0,67,0.00,CLR,,0.00,WeatherDisplay:10.37,2013-03-01 06:56:00,
2013-03-01 01:01:00,37.0,27.4,30.13,ENE,58,0.0,0.0,68,0.00,CLR,,0.00,WeatherDisplay:10.37,2013-03-01 07:01:00,
2013-03-01 01:06:00,37.0,27.4,30.12,ENE,58,0.0,0.0,68,0.00,CLR,,0.00,WeatherDisplay:10.37,2013-03-01 07:06:00,
2013-03-01 01:11:00,37.0,27.1,30.12,ENE,58,0.0,0.0,67,0.00,CLR,,0.00,WeatherDisplay:10.37,2013-03-01 07:11:00,
2013-03-01 01:16:00,37.0,27.1,30.12,ENE,58,0.0,0.0,67,0.00,CLR,,0.00,WeatherDisplay:10.37,2013-03-01 07:16:00,
2013-03-01 01:21:00,36.9,27.0,30.12,ENE,58,0.0,0.0,67,0.00,CLR,,0.00,WeatherDisplay:10.37,2013-03-01 07:21:00,
2013-03-01 01:26:00,37.0,27.1,30.12,North,5,0.0,0.0,67,0.00,CLR,,0.00,WeatherDisplay:10.37,2013-03-01 07:26:00,
2013-03-01 01:31:00,37.0,27.1,30.12,North,5,0.0,0.0,67,0.00,CLR,,0.00,WeatherDisplay:10.37,2013-03-01 07:31:00,
2013-03-01 01:36:00,37.0,27.1,30.11,North,5,0.0,0.0,67,0.00,CLR,,0.00,WeatherDisplay:10.37,2013-03-01 07:36:00,
2013-03-01 01:41:00,37.0,27.1,30.12,North,5,0.0,0.0,67,0.00,CLR,,0.00,WeatherDisplay:10.37,2013-03-01 07:41:00,
2013-03-01 01:46:00,37.0,27.1,30.11,North,5,0.0,0.0,67,0.00,CLR,,0.00,WeatherDisplay:10.37,2013-03-01 07:46:00,
2013-03-01 01:51:00,37.0,27.8,30.11,North,5,0.0,0.0,69,0.00,CLR,,0.00,WeatherDisplay:10.37,2013-03-01 07:51:00,
2013-03-01 01:56:00,37.0,27.4,30.12,North,5,0.0,0.0,68,0.00,CLR,,0.00,WeatherDisplay:10.37,2013-03-01 07:56:00,
2013-03-01 02:01:00,37.0,27.8,30.11,North,5,0.0,0.0,69,0.00,CLR,,0.00,WeatherDisplay:10.37,2013-03-01 08:01:00,
2013-03-01 02:06:00,36.9,27.7,30.11,North,5,0.0,0.0,69,0.00,CLR,,0.00,WeatherDisplay:10.37,2013-03-01 08:06:00,
2013-03-01 02:11:00,36.9,28.0,30.11,North,5,0.0,0.0,70,0.00,CLR,,0.00,WeatherDisplay:10.37,2013-03-01 08:11:00,
2013-03-01 02:16:00,36.9,27.7,30.11,North,5,0.0,0.0,69,0.00,CLR,,0.00,WeatherDisplay:10.37,2013-03-01 08:16:00,
2013-03-01 02:22:00,36.9,27.7,30.12,North,5,0.0,0.0,69,0.00,CLR,,0.00,WeatherDisplay:10.37,2013-03-01 08:22:00,
2013-03-01 02:27:00,36.9,27.7,30.12,North,5,0.0,0.0,69,0.00,CLR,,0.00,WeatherDisplay:10.37,2013-03-01 08:27:00,
2013-03-01 02:32:00,36.9,27.7,30.12,NE,36,2.0,0.0,69,0.00,CLR,,0.00,WeatherDisplay:10.37,2013-03-01 08:32:00,
2013-03-01 02:37:00,36.9,27.7,30.12,ENE,59,0.0,0.0,69,0.00,CLR,,0.00,WeatherDisplay:10.37,2013-03-01 08:37:00,
2013-03-01 02:42:00,36.9,27.7,30.12,ENE,59,0.0,0.0,69,0.00,CLR,,0.00,WeatherDisplay:10.37,2013-03-01 08:42:00,
2013-03-01 02:47:00,36.9,27.7,30.12,ENE,59,0.0,0.0,69,0.00,CLR,,0.00,WeatherDisplay:10.37,2013-03-01 08:47:00,
2013-03-01 02:52:00,36.9,27.7,30.13,ENE,59,0.0,0.0,69,0.00,CLR,,0.00,WeatherDisplay:10.37,2013-03-01 08:52:00,
2013-03-01 02:57:00,36.9,27.7,30.13,ENE,59,0.0,0.0,69,0.00,CLR,,0.00,WeatherDisplay:10.37,2013-03-01 08:57:00,
2013-03-01 03:02:00,36.9,28.0,30.13,ENE,59,0.0,0.0,70,0.00,CLR,,0.00,WeatherDisplay:10.37,2013-03-01 09:02:00,
2013-03-01 03:07:00,36.9,28.0,30.12,ENE,59,0.0,0.0,70,0.00,CLR,,0.00,WeatherDisplay:10.37,2013-03-01 09:07:00,
2013-03-01 03:12:00,36.8,27.9,30.13,ENE,59,0.0,0.0,70,0.00,CLR,,0.00,WeatherDisplay:10.37,2013-03-01 09:12:00,
2013-03-01 03:17:00,36.8,27.9,30.13,ENE,59,0.0,0.0,70,0.00,CLR,,0.00,WeatherDisplay:10.37,2013-03-01 09:17:00,
2013-03-01 03:22:00,36.8,27.9,30.13,ENE,59,0.0,0.0,70,0.00,CLR,,0.00,WeatherDisplay:10.37,2013-03-01 09:22:00,
2013-03-01 03:27:00,36.8,27.6,30.13,ENE,59,0.0,0.0,69,0.00,CLR,,0.00,WeatherDisplay:10.37,2013-03-01 09:27:00,
2013-03-01 03:32:00,36.8,27.9,30.13,ENE,59,0.0,0.0,70,0.00,CLR,,0.00,WeatherDisplay:10.37,2013-03-01 09:32:00,
2013-03-01 03:37:00,36.8,27.9,30.13,ENE,59,0.0,0.0,70,0.00,CLR,,0.00,WeatherDisplay:10.37,2013-03-01 09:37:00,
2013-03-01 03:42:00,36.8,28.3,30.13,ENE,59,1.1,0.0,71,0.00,CLR,,0.00,WeatherDisplay:10.37,2013-03-01 09:42:00,
2013-03-01 03:47:00,36.8,27.9,30.13,ENE,59,0.0,0.0,70,0.00,CLR,,0.00,WeatherDisplay:10.37,2013-03-01 09:47:00,
2013-03-01 03:52:00,36.8,27.9,30.13,ENE,59,0.0,0.0,70,0.00,CLR,,0.00,WeatherDisplay:10.37,2013-03-01 09:52:00,
2013-03-01 03:57:00,36.8,27.9,30.13,ENE,59,1.1,0.0,70,0.00,CLR,,0.00,WeatherDisplay:10.37,2013-03-01 09:57:00,
2013-03-01 04:02:00,36.8,28.3,30.13,ENE,59,0.0,0.0,71,0.00,CLR,,0.00,WeatherDisplay:10.37,2013-03-01 10:02:00,
2013-03-01 04:07:00,36.6,28.1,30.13,ENE,59,0.0,0.0,71,0.00,CLR,,0.00,WeatherDisplay:10.37,2013-03-01 10:07:00,
2013-03-01 04:12:00,36.6,28.4,30.13,ENE,59,0.0,0.0,72,0.00,CLR,,0.00,WeatherDisplay:10.37,2013-03-01 10:12:00,
2013-03-01 04:17:00,36.6,28.4,30.13,ENE,59,0.0,0.0,72,0.00,CLR,,0.00,WeatherDisplay:10.37,2013-03-01 10:17:00,
2013-03-01 04:22:00,36.6,28.4,30.13,ENE,59,0.0,0.0,72,0.00,CLR,,0.00,WeatherDisplay:10.37,2013-03-01 10:22:00,
2013-03-01 04:27:00,36.6,28.8,30.13,ENE,59,0.0,0.0,73,0.00,CLR,,0.00,WeatherDisplay:10.37,2013-03-01 10:27:00,
2013-03-01 04:32:00,36.5,28.7,30.13,ENE,59,0.0,0.0,73,0.00,CLR,,0.00,WeatherDisplay:10.37,2013-03-01 10:32:00,
2013-03-01 04:37:00,36.5,28.7,30.13,ENE,59,0.0,0.0,73,0.00,CLR,,0.00,WeatherDisplay:10.37,2013-03-01 10:37:00,
2013-03-01 04:42:00,36.5,28.7,30.13,ENE,59,0.0,0.0,73,0.00,CLR,,0.00,WeatherDisplay:10.37,2013-03-01 10:42:00,
2013-03-01 04:47:00,36.5,28.7,30.13,ENE,59,0.0,0.0,73,0.00,CLR,,0.00,WeatherDisplay:10.37,2013-03-01 10:47:00,
2013-03-01 04:52:00,36.5,29.0,30.13,ENE,59,0.0,0.0,74,0.00,CLR,,0.00,WeatherDisplay:10.37,2013-03-01 10:52:00,
2013-03-01 04:57:00,36.5,28.7,30.13,ENE,59,0.0,0.0,73,0.00,CLR,,0.00,WeatherDisplay:10.37,2013-03-01 10:57:00,
2013-03-01 05:02:00,36.3,28.5,30.13,ENE,59,0.0,0.0,73,0.00,CLR,,0.00,WeatherDisplay:10.37,2013-03-01 11:02:00,
2013-03-01 05:07:00,36.3,28.5,30.13,ENE,59,0.0,0.0,73,0.00,CLR,,0.00,WeatherDisplay:10.37,2013-03-01 11:07:00,
2013-03-01 05:12:00,36.3,28.5,30.13,ENE,59,0.0,0.0,73,0.00,CLR,,0.00,WeatherDisplay:10.37,2013-03-01 11:12:00,
2013-03-01 05:17:00,36.3,28.8,30.13,ENE,59,0.0,0.0,74,0.00,CLR,,0.00,WeatherDisplay:10.37,2013-03-01 11:17:00,
2013-03-01 05:22:00,36.3,28.8,30.13,ENE,59,0.0,0.0,74,0.00,CLR,,0.00,WeatherDisplay:10.37,2013-03-01 11:22:00,
2013-03-01 05:27:00,36.3,28.8,30.13,ENE,59,0.0,0.0,74,0.00,CLR,,0.00,WeatherDisplay:10.37,2013-03-01 11:27:00,
2013-03-01 05:32:00,36.3,28.8,30.13,ENE,59,0.0,0.0,74,0.00,CLR,,0.00,WeatherDisplay:10.37,2013-03-01 11:32:00,
2013-03-01 05:37:00,36.3,29.5,30.13,ENE,59,0.0,0.0,76,0.00,CLR,,0.00,WeatherDisplay:10.37,2013-03-01 11:37:00,
2013-03-01 05:42:00,36.2,29.4,30.13,ENE,59,0.0,0.0,76,0.00,CLR,,0.00,WeatherDisplay:10.37,2013-03-01 11:42:00,
2013-03-01 05:47:00,36.2,29.4,30.14,ENE,59,0.0,0.0,76,0.00,CLR,,0.00,WeatherDisplay:10.37,2013-03-01 11:47:00,
2013-03-01 05:52:00,36.2,29.4,30.14,ENE,59,0.0,0.0,76,0.00,CLR,,0.00,WeatherDisplay:10.37,2013-03-01 11:52:00,
2013-03-01 05:57:00,36.3,29.1,30.13,ENE,59,0.0,0.0,75,0.00,CLR,,0.00,WeatherDisplay:10.37,2013-03-01 11:57:00,
2013-03-01 06:02:00,36.3,28.8,30.14,ENE,59,0.0,0.0,74,0.00,CLR,,0.00,WeatherDisplay:10.37,2013-03-01 12:02:00,
2013-03-01 06:07:00,36.3,29.1,30.14,ENE,59,0.0,0.0,75,0.00,CLR,,0.00,WeatherDisplay:10.37,2013-03-01 12:07:00,
2013-03-01 06:12:00,36.3,28.8,30.14,ENE,59,0.0,0.0,74,0.00,CLR,,0.00,WeatherDisplay:10.37,2013-03-01 12:12:00,
2013-03-01 06:17:00,36.3,29.1,30.14,ENE,59,0.0,0.0,75,0.00,CLR,,0.00,WeatherDisplay:10.37,2013-03-01 12:17:00,
2013-03-01 06:22:00,36.3,29.1,30.14,ENE,59,0.0,0.0,75,0.00,CLR,,0.00,WeatherDisplay:10.37,2013-03-01 12:22:00,
2013-03-01 06:27:00,36.3,29.1,30.14,ENE,59,0.0,0.0,75,0.00,CLR,,0.00,WeatherDisplay:10.37,2013-03-01 12:27:00,
2013-03-01 06:32:00,36.3,29.1,30.14,ENE,59,0.0,0.0,75,0.00,CLR,,0.00,WeatherDisplay:10.37,2013-03-01 12:32:00,
2013-03-01 06:37:00,36.3,29.1,30.14,ENE,59,0.0,0.0,75,0.00,CLR,,0.00,WeatherDisplay:10.37,2013-03-01 12:37:00,
2013-03-01 06:42:00,36.3,29.5,30.14,ENE,59,0.0,0.0,76,0.00,CLR,,0.00,WeatherDisplay:10.37,2013-03-01 12:42:00,
2013-03-01 06:47:00,36.3,29.5,30.14,ENE,59,0.0,0.0,76,0.00,CLR,,0.00,WeatherDisplay:10.37,2013-03-01 12:47:00,
2013-03-01 06:52:00,36.5,30.0,30.14,ENE,59,0.0,0.0,77,0.00,CLR,,0.00,WeatherDisplay:10.37,2013-03-01 12:52:00,
2013-03-01 06:57:00,36.5,30.0,30.14,ENE,59,0.0,0.0,77,0.00,CLR,,0.00,WeatherDisplay:10.37,2013-03-01 12:57:00,
2013-03-01 07:02:00,36.5,30.0,30.14,ENE,59,0.0,0.0,77,0.00,CLR,,0.00,WeatherDisplay:10.37,2013-03-01 13:02:00,
2013-03-01 07:07:00,36.5,30.0,30.14,ENE,59,0.0,0.0,77,0.00,CLR,,0.00,WeatherDisplay:10.37,2013-03-01 13:07:00,
2013-03-01 07:12:00,36.6,30.4,30.14,ENE,59,0.0,0.0,78,0.00,CLR,,0.00,WeatherDisplay:10.37,2013-03-01 13:12:00,
2013-03-01 07:17:00,36.8,30.6,30.14,ENE,59,1.1,0.0,78,0.00,CLR,,0.00,WeatherDisplay:10.37,2013-03-01 13:17:00,
2013-03-01 07:22:00,36.8,30.3,30.15,South,175,0.0,0.0,77,0.00,CLR,,0.00,WeatherDisplay:10.37,2013-03-01 13:22:00,
2013-03-01 07:27:00,36.9,30.7,30.15,SSW,198,0.0,0.0,78,0.00,CLR,,0.00,WeatherDisplay:10.37,2013-03-01 13:27:00,
2013-03-01 07:32:00,36.9,30.7,30.15,SSW,198,0.0,0.0,78,0.00,CLR,,0.00,WeatherDisplay:10.37,2013-03-01 13:32:00,
2013-03-01 07:37:00,37.0,30.5,30.15,SSW,198,0.0,0.0,77,0.00,CLR,,0.00,WeatherDisplay:10.37,2013-03-01 13:37:00,
2013-03-01 07:42:00,37.0,30.5,30.16,SSW,198,0.0,0.0,77,0.00,CLR,,0.00,WeatherDisplay:10.37,2013-03-01 13:42:00,
2013-03-01 07:47:00,37.2,30.7,30.16,SSW,198,1.1,0.0,77,0.00,CLR,,0.00,WeatherDisplay:10.37,2013-03-01 13:47:00,
2013-03-01 07:52:00,37.2,30.7,30.16,SSW,205,0.0,0.0,77,0.00,CLR,,0.00,WeatherDisplay:10.37,2013-03-01 13:52:00,
2013-03-01 07:57:00,37.2,31.0,30.16,SSW,205,0.0,0.0,78,0.00,CLR,,0.00,WeatherDisplay:10.37,2013-03-01 13:57:00,
2013-03-01 08:02:00,37.3,31.1,30.16,SSW,205,0.0,0.0,78,0.00,CLR,,0.00,WeatherDisplay:10.37,2013-03-01 14:02:00,
2013-03-01 08:07:00,37.3,31.1,30.16,SSW,205,0.0,0.0,78,0.00,CLR,,0.00,WeatherDisplay:10.37,2013-03-01 14:07:00,
2013-03-01 08:12:00,37.5,30.9,30.16,SSW,205,0.0,0.0,77,0.00,CLR,,0.00,WeatherDisplay:10.37,2013-03-01 14:12:00,
2013-03-01 08:18:00,37.5,30.9,30.16,SSW,205,1.1,0.0,77,0.00,CLR,,0.00,WeatherDisplay:10.37,2013-03-01 14:18:00,
2013-03-01 08:23:00,37.5,30.9,30.16,SSW,205,1.1,0.0,77,0.00,CLR,,0.00,WeatherDisplay:10.37,2013-03-01 14:23:00,
2013-03-01 08:28:00,37.5,31.3,30.16,SSW,205,0.0,0.0,78,0.00,CLR,,0.00,WeatherDisplay:10.37,2013-03-01 14:28:00,
2013-03-01 08:33:00,37.5,30.9,30.16,SSW,205,0.0,0.0,77,0.00,CLR,,0.00,WeatherDisplay:10.37,2013-03-01 14:33:00,
2013-03-01 08:38:00,37.6,31.0,30.16,SSW,205,0.0,0.0,77,0.00,CLR,,0.00,WeatherDisplay:10.37,2013-03-01 14:38:00,
2013-03-01 08:43:00,37.8,30.9,30.16,SSW,205,0.0,0.0,76,0.00,CLR,,0.00,WeatherDisplay:10.37,2013-03-01 14:43:00,
2013-03-01 08:48:00,37.9,31.3,30.16,SSW,205,0.0,0.0,77,0.00,CLR,,0.00,WeatherDisplay:10.37,2013-03-01 14:48:00,
2013-03-01 08:53:00,38.0,31.1,30.16,SSW,205,0.0,0.0,76,0.00,CLR,,0.00,WeatherDisplay:10.37,2013-03-01 14:53:00,
2013-03-01 08:58:00,38.2,31.0,30.16,WSW,247,0.0,0.0,75,0.00,CLR,,0.00,WeatherDisplay:10.37,2013-03-01 14:58:00,
2013-03-01 09:03:00,38.3,31.1,30.16,WSW,246,1.1,0.0,75,0.00,CLR,,0.00,WeatherDisplay:10.37,2013-03-01 15:03:00,
2013-03-01 09:08:00,38.5,31.3,30.16,WSW,246,1.1,0.0,75,0.00,CLR,,0.00,WeatherDisplay:10.37,2013-03-01 15:08:00,
2013-03-01 09:13:00,38.6,31.0,30.16,SW,236,3.5,3.5,74,0.00,CLR,,0.00,WeatherDisplay:10.37,2013-03-01 15:13:00,
2013-03-01 09:18:00,38.8,31.2,30.16,SW,235,1.1,0.0,74,0.00,CLR,,0.00,WeatherDisplay:10.37,2013-03-01 15:18:00,
2013-03-01 09:23:00,38.8,30.9,30.16,SW,236,0.0,0.0,73,0.00,CLR,,0.00,WeatherDisplay:10.37,2013-03-01 15:23:00,
2013-03-01 09:28:00,38.6,30.7,30.16,West,281,3.5,3.5,73,0.00,CLR,,0.00,WeatherDisplay:10.37,2013-03-01 15:28:00,
2013-03-01 09:33:00,38.5,30.3,30.16,West,281,0.0,0.0,72,0.00,CLR,,0.00,WeatherDisplay:10.37,2013-03-01 15:33:00,
2013-03-01 09:38:00,38.6,30.7,30.16,South,190,0.0,0.0,73,0.00,CLR,,0.00,WeatherDisplay:10.37,2013-03-01 15:38:00,
2013-03-01 09:43:00,38.8,30.9,30.16,South,190,0.0,0.0,73,0.00,CLR,,0.00,WeatherDisplay:10.37,2013-03-01 15:43:00,
2013-03-01 09:48:00,39.1,30.8,30.16,WNW,290,0.0,0.0,72,0.00,CLR,,0.00,WeatherDisplay:10.37,2013-03-01 15:48:00,
2013-03-01 09:53:00,39.2,30.6,30.16,WNW,290,0.0,0.0,71,0.00,CLR,,0.00,WeatherDisplay:10.37,2013-03-01 15:53:00,
2013-03-01 09:58:00,39.3,30.7,30.16,North,355,1.1,1.1,71,0.00,CLR,,0.00,WeatherDisplay:10.37,2013-03-01 15:58:00,
2013-03-01 10:03:00,39.2,30.6,30.16,NNW,327,0.0,0.0,71,0.00,CLR,,0.00,WeatherDisplay:10.37,2013-03-01 16:03:00,
2013-03-01 10:08:00,39.2,30.9,30.16,NNE,12,2.3,2.3,72,0.00,CLR,,0.00,WeatherDisplay:10.37,2013-03-01 16:08:00,
2013-03-01 10:13:00,39.2,30.9,30.16,NW,326,3.5,3.5,72,0.00,CLR,,0.00,WeatherDisplay:10.37,2013-03-01 16:13:00,
2013-03-01 10:18:00,39.1,30.8,30.16,North,360,0.0,0.0,72,0.00,CLR,,0.00,WeatherDisplay:10.37,2013-03-01 16:18:00,
2013-03-01 10:23:00,39.1,30.5,30.16,North,360,1.1,0.0,71,0.00,CLR,,0.00,WeatherDisplay:10.37,2013-03-01 16:23:00,
2013-03-01 10:28:00,39.3,31.0,30.16,North,360,1.1,0.0,72,0.00,CLR,,0.00,WeatherDisplay:10.37,2013-03-01 16:28:00,
2013-03-01 10:33:00,39.8,30.8,30.16,NNW,341,2.3,2.3,70,0.00,CLR,,0.00,WeatherDisplay:10.37,2013-03-01 16:33:00,
2013-03-01 10:38:00,40.1,31.1,30.15,WNW,282,3.5,3.5,70,0.00,CLR,,0.00,WeatherDisplay:10.37,2013-03-01 16:38:00,
2013-03-01 10:43:00,40.3,30.6,30.15,SSW,205,1.1,1.1,68,0.00,CLR,,0.00,WeatherDisplay:10.37,2013-03-01 16:43:00,
2013-03-01 10:48:00,40.6,30.5,30.15,SSW,211,3.5,3.5,67,0.00,CLR,,0.00,WeatherDisplay:10.37,2013-03-01 16:48:00,
2013-03-01 10:53:00,40.8,31.4,30.15,SW,221,2.3,2.3,69,0.00,CLR,,0.00,WeatherDisplay:10.37,2013-03-01 16:53:00,
2013-03-01 10:58:00,40.9,31.5,30.15,SSW,207,3.5,3.5,69,0.00,CLR,,0.00,WeatherDisplay:10.37,2013-03-01 16:58:00,
2013-03-01 11:03:00,40.6,30.9,30.15,SSE,148,3.5,3.5,68,0.00,CLR,,0.00,WeatherDisplay:10.37,2013-03-01 17:03:00,
2013-03-01 11:08:00,40.5,30.8,30.15,SE,131,1.1,1.1,68,0.00,CLR,,0.00,WeatherDisplay:10.37,2013-03-01 17:08:00,
2013-03-01 11:13:00,40.3,30.6,30.15,West,270,1.1,1.1,68,0.00,CLR,,0.00,WeatherDisplay:10.37,2013-03-01 17:13:00,
2013-03-01 11:18:00,40.3,30.2,30.15,WNW,292,4.6,4.6,67,0.00,CLR,,0.00,WeatherDisplay:10.37,2013-03-01 17:18:00,
2013-03-01 11:23:00,40.2,30.1,30.15,NW,309,0.0,0.0,67,0.00,CLR,,0.00,WeatherDisplay:10.37,2013-03-01 17:23:00,
2013-03-01 11:28:00,40.3,30.2,30.15,North,355,1.1,0.0,67,0.00,CLR,,0.00,WeatherDisplay:10.37,2013-03-01 17:28:00,
2013-03-01 11:33:00,40.2,29.4,30.15,West,269,5.8,5.8,65,0.00,CLR,,0.00,WeatherDisplay:10.37,2013-03-01 17:33:00,
2013-03-01 11:38:00,40.2,29.7,30.14,West,269,2.3,2.3,66,0.00,CLR,,0.00,WeatherDisplay:10.37,2013-03-01 17:38:00,
2013-03-01 11:43:00,40.1,29.6,30.15,WSW,248,3.5,3.5,66,0.00,CLR,,0.00,WeatherDisplay:10.37,2013-03-01 17:43:00,
2013-03-01 11:48:00,39.9,29.8,30.14,North,11,4.6,4.6,67,0.00,CLR,,0.00,WeatherDisplay:10.37,2013-03-01 17:48:00,
2013-03-01 11:53:00,40.1,29.6,30.14,West,280,2.3,2.3,66,0.00,CLR,,0.00,WeatherDisplay:10.37,2013-03-01 17:53:00,
2013-03-01 11:58:00,40.2,29.7,30.14,NNE,30,2.3,2.3,66,0.00,CLR,,0.00,WeatherDisplay:10.37,2013-03-01 17:58:00,
2013-03-01 12:03:00,40.2,29.4,30.14,West,272,9.2,9.2,65,0.00,CLR,,0.00,WeatherDisplay:10.37,2013-03-01 18:03:00,
2013-03-01 12:08:00,40.2,29.4,30.14,NNE,24,1.1,0.0,65,0.00,CLR,,0.00,WeatherDisplay:10.37,2013-03-01 18:08:00,
2013-03-01 12:13:00,40.3,29.8,30.14,NNE,24,1.0,1.0,66,0.00,CLR,,0.00,WeatherDisplay:10.37,2013-03-01 18:13:00,
2013-03-01 12:18:00,40.3,29.8,30.14,NNE,19,1.1,1.1,66,0.00,CLR,,0.00,WeatherDisplay:10.37,2013-03-01 18:18:00,
2013-03-01 12:23:00,40.3,29.5,30.14,SW,236,1.1,1.1,65,0.00,CLR,,0.00,WeatherDisplay:10.37,2013-03-01 18:23:00,
2013-03-01 12:28:00,40.3,29.8,30.14,SSW,207,3.5,3.5,66,0.00,CLR,,0.00,WeatherDisplay:10.37,2013-03-01 18:28:00,
2013-03-01 12:33:00,40.5,30.0,30.13,WSW,252,0.0,0.1,66,0.00,CLR,,0.00,WeatherDisplay:10.37,2013-03-01 18:33:00,
2013-03-01 12:38:00,40.6,29.4,30.13,NE,37,3.5,3.5,64,0.00,CLR,,0.00,WeatherDisplay:10.37,2013-03-01 18:38:00,
2013-03-01 12:43:00,40.8,30.3,30.13,NNE,26,1.1,1.1,66,0.00,CLR,,0.00,WeatherDisplay:10.37,2013-03-01 18:43:00,
2013-03-01 12:48:00,40.9,30.4,30.13,North,350,1.1,1.1,66,0.00,CLR,,0.00,WeatherDisplay:10.37,2013-03-01 18:48:00,
2013-03-01 12:53:00,40.9,30.4,30.13,NNE,22,3.5,3.5,66,0.00,CLR,,0.00,WeatherDisplay:10.37,2013-03-01 18:53:00,
2013-03-01 12:58:00,40.8,29.6,30.12,West,277,4.0,4.0,64,0.00,CLR,,0.00,WeatherDisplay:10.37,2013-03-01 18:58:00,
2013-03-01 13:03:00,40.6,29.7,30.13,WSW,250,2.3,0.0,65,0.00,CLR,,0.00,WeatherDisplay:10.37,2013-03-01 19:03:00,
2013-03-01 13:08:00,40.3,29.5,30.13,West,281,3.5,3.5,65,0.00,CLR,,0.00,WeatherDisplay:10.37,2013-03-01 19:08:00,
2013-03-01 13:13:00,40.1,29.6,30.12,South,183,6.0,6.0,66,0.00,CLR,,0.00,WeatherDisplay:10.37,2013-03-01 19:13:00,
2013-03-01 13:18:00,39.9,29.5,30.12,WNW,302,1.1,0.0,66,0.00,CLR,,0.00,WeatherDisplay:10.37,2013-03-01 19:18:00,
2013-03-01 13:23:00,39.9,28.7,30.12,West,272,7.0,7.0,64,0.00,CLR,,0.00,WeatherDisplay:10.37,2013-03-01 19:23:00,
2013-03-01 13:28:00,39.9,29.8,30.12,NNW,336,1.1,1.1,67,0.00,CLR,,0.00,WeatherDisplay:10.37,2013-03-01 19:28:00,
2013-03-01 13:33:00,40.1,29.6,30.12,SSW,192,1.1,0.0,66,0.00,CLR,,0.00,WeatherDisplay:10.37,2013-03-01 19:33:00,
2013-03-01 13:38:00,40.3,29.8,30.12,West,269,0.0,0.0,66,0.00,CLR,,0.00,WeatherDisplay:10.37,2013-03-01 19:38:00,
2013-03-01 13:43:00,40.2,29.7,30.12,West,271,7.0,7.0,66,0.00,CLR,,0.00,WeatherDisplay:10.37,2013-03-01 19:43:00,
2013-03-01 13:48:00,39.8,29.4,30.12,NW,318,0.0,0.0,66,0.00,CLR,,0.00,WeatherDisplay:10.37,2013-03-01 19:48:00,
2013-03-01 13:53:00,39.6,29.5,30.12,NE,34,1.1,0.0,67,0.00,CLR,,0.00,WeatherDisplay:10.37,2013-03-01 19:53:00,
2013-03-01 13:58:00,39.6,29.5,30.12,East,92,5.8,5.8,67,0.00,CLR,,0.00,WeatherDisplay:10.37,2013-03-01 19:58:00,
2013-03-01 14:03:00,39.3,29.3,30.12,South,187,4.6,4.6,67,0.00,CLR,,0.00,WeatherDisplay:10.37,2013-03-01 20:03:00,
2013-03-01 14:08:00,39.3,29.3,30.12,ENE,74,3.5,3.5,67,0.00,CLR,,0.00,WeatherDisplay:10.37,2013-03-01 20:08:00,
2013-03-01 14:13:00,39.2,29.2,30.12,NE,40,1.1,0.0,67,0.00,CLR,,0.00,WeatherDisplay:10.37,2013-03-01 20:13:00,
2013-03-01 14:18:00,39.3,29.6,30.13,NE,39,0.0,0.0,68,0.00,CLR,,0.00,WeatherDisplay:10.37,2013-03-01 20:18:00,
2013-03-01 14:23:00,39.3,29.6,30.12,NE,39,3.5,3.5,68,0.00,CLR,,0.00,WeatherDisplay:10.37,2013-03-01 20:23:00,
2013-03-01 14:28:00,39.3,29.6,30.12,NNE,31,1.1,1.1,68,0.00,CLR,,0.00,WeatherDisplay:10.37,2013-03-01 20:28:00,
2013-03-01 14:33:00,39.5,29.8,30.12,SSW,202,1.1,0.0,68,0.00,CLR,,0.00,WeatherDisplay:10.37,2013-03-01 20:33:00,
2013-03-01 14:38:00,39.6,29.5,30.13,North,351,5.8,5.8,67,0.00,CLR,,0.00,WeatherDisplay:10.37,2013-03-01 20:38:00,
2013-03-01 14:43:00,39.8,30.5,30.13,NNW,340,2.3,2.3,69,0.00,CLR,,0.00,WeatherDisplay:10.37,2013-03-01 20:43:00,
2013-03-01 14:48:00,39.8,30.8,30.13,NNE,26,3.5,3.5,70,0.00,CLR,,0.00,WeatherDisplay:10.37,2013-03-01 20:48:00,
2013-03-01 14:53:00,39.6,30.6,30.13,NNE,25,2.3,2.3,70,0.00,CLR,,0.00,WeatherDisplay:10.37,2013-03-01 20:53:00,
2013-03-01 14:59:00,39.5,30.5,30.13,North,5,4.6,4.6,70,0.00,CLR,,0.00,WeatherDisplay:10.37,2013-03-01 20:59:00,
2013-03-01 15:04:00,39.5,30.5,30.12,NE,36,3.5,3.5,70,0.00,CLR,,0.00,WeatherDisplay:10.37,2013-03-01 21:04:00,
2013-03-01 15:09:00,39.5,30.2,30.12,NE,36,0.0,0.0,69,0.00,CLR,,0.00,WeatherDisplay:10.37,2013-03-01 21:09:00,
2013-03-01 15:14:00,39.5,30.2,30.12,NE,36,1.1,1.1,69,0.00,CLR,,0.00,WeatherDisplay:10.37,2013-03-01 21:14:00,
2013-03-01 15:19:00,39.3,30.0,30.12,NE,36,1.1,0.0,69,0.00,CLR,,0.00,WeatherDisplay:10.37,2013-03-01 21:19:00,
2013-03-01 15:24:00,39.5,30.5,30.12,NE,36,1.1,1.1,70,0.00,CLR,,0.00,WeatherDisplay:10.37,2013-03-01 21:24:00,
2013-03-01 15:29:00,39.5,29.8,30.13,NE,36,1.1,0.0,68,0.00,CLR,,0.00,WeatherDisplay:10.37,2013-03-01 21:29:00,
2013-03-01 15:34:00,39.5,29.4,30.13,NE,37,2.3,2.3,67,0.00,CLR,,0.00,WeatherDisplay:10.37,2013-03-01 21:34:00,
2013-03-01 15:39:00,39.3,29.3,30.12,NE,37,0.0,0.0,67,0.00,CLR,,0.00,WeatherDisplay:10.37,2013-03-01 21:39:00,
2013-03-01 15:44:00,39.5,29.8,30.12,NE,37,1.0,0.0,68,0.00,CLR,,0.00,WeatherDisplay:10.37,2013-03-01 21:44:00,
2013-03-01 15:49:00,39.5,29.8,30.12,NNE,28,5.0,5.0,68,0.00,CLR,,0.00,WeatherDisplay:10.37,2013-03-01 21:49:00,
2013-03-01 15:54:00,39.5,29.4,30.12,NNW,334,3.5,3.5,67,0.00,CLR,,0.00,WeatherDisplay:10.37,2013-03-01 21:54:00,
2013-03-01 15:59:00,39.5,29.8,30.12,NNW,334,0.0,0.0,68,0.00,CLR,,0.00,WeatherDisplay:10.37,2013-03-01 21:59:00,
2013-03-01 16:04:00,39.5,29.4,30.12,WSW,248,3.5,3.5,67,0.00,CLR,,0.00,WeatherDisplay:10.37,2013-03-01 22:04:00,
2013-03-01 16:09:00,39.3,29.6,30.13,NE,54,2.3,2.3,68,0.00,CLR,,0.00,WeatherDisplay:10.37,2013-03-01 22:09:00,
2013-03-01 16:14:00,39.2,29.2,30.13,NE,55,0.0,0.0,67,0.00,CLR,,0.00,WeatherDisplay:10.37,2013-03-01 22:14:00,
2013-03-01 16:19:00,39.2,29.9,30.13,NE,55,0.0,0.0,69,0.00,CLR,,0.00,WeatherDisplay:10.37,2013-03-01 22:19:00,
2013-03-01 16:24:00,39.2,29.9,30.13,NE,55,0.0,0.0,69,0.00,CLR,,0.00,WeatherDisplay:10.37,2013-03-01 22:24:00,
2013-03-01 16:29:00,39.2,29.5,30.13,North,5,1.1,1.1,68,0.00,CLR,,0.00,WeatherDisplay:10.37,2013-03-01 22:29:00,
2013-03-01 16:34:00,38.9,29.6,30.13,SE,124,3.5,3.5,69,0.00,CLR,,0.00,WeatherDisplay:10.37,2013-03-01 22:34:00,
2013-03-01 16:39:00,38.8,29.8,30.13,North,5,1.1,0.0,70,0.00,CLR,,0.00,WeatherDisplay:10.37,2013-03-01 22:39:00,
2013-03-01 16:44:00,38.6,30.0,30.13,NNE,23,3.5,3.5,71,0.00,CLR,,0.00,WeatherDisplay:10.37,2013-03-01 22:44:00,
2013-03-01 16:49:00,38.5,29.6,30.13,NNE,14,3.5,3.5,70,0.00,CLR,,0.00,WeatherDisplay:10.37,2013-03-01 22:49:00,
2013-03-01 16:54:00,38.5,29.9,30.13,North,5,3.5,3.5,71,0.00,CLR,,0.00,WeatherDisplay:10.37,2013-03-01 22:54:00,
2013-03-01 16:59:00,38.3,29.4,30.13,ENE,57,2.3,2.3,70,0.00,CLR,,0.00,WeatherDisplay:10.37,2013-03-01 22:59:00,
2013-03-01 17:04:00,38.3,29.7,30.13,NNE,13,2.3,0.0,71,0.00,CLR,,0.00,WeatherDisplay:10.37,2013-03-01 23:04:00,
2013-03-01 17:09:00,38.2,29.3,30.13,NNW,333,2.3,2.3,70,0.00,CLR,,0.00,WeatherDisplay:10.37,2013-03-01 23:09:00,
2013-03-01 17:14:00,38.2,29.3,30.13,NNW,333,0.0,0.0,70,0.00,CLR,,0.00,WeatherDisplay:10.37,2013-03-01 23:14:00,
2013-03-01 17:19:00,38.2,29.6,30.13,NNW,333,1.1,0.0,71,0.00,CLR,,0.00,WeatherDisplay:10.37,2013-03-01 23:19:00,
2013-03-01 17:24:00,38.2,29.3,30.13,NE,37,1.1,0.0,70,0.00,CLR,,0.00,WeatherDisplay:10.37,2013-03-01 23:24:00,
2013-03-01 17:29:00,38.2,29.3,30.13,NNE,20,0.0,0.0,70,0.00,CLR,,0.00,WeatherDisplay:10.37,2013-03-01 23:29:00,
2013-03-01 17:34:00,38.0,29.1,30.13,East,98,0.0,0.0,70,0.00,CLR,,0.00,WeatherDisplay:10.37,2013-03-01 23:34:00,
2013-03-01 17:39:00,38.2,29.3,30.13,East,98,0.0,0.2,70,0.00,CLR,,0.00,WeatherDisplay:10.37,2013-03-01 23:39:00,
2013-03-01 17:44:00,38.0,29.1,30.13,East,98,1.1,0.0,70,0.00,CLR,,0.00,WeatherDisplay:10.37,2013-03-01 23:44:00,
2013-03-01 17:49:00,38.0,29.1,30.13,East,98,0.0,0.0,70,0.00,CLR,,0.00,WeatherDisplay:10.37,2013-03-01 23:49:00,
2013-03-01 17:54:00,38.0,29.4,30.14,East,98,0.0,0.0,71,0.00,CLR,,0.00,WeatherDisplay:10.37,2013-03-01 23:54:00,
2013-03-01 17:59:00,38.0,29.4,30.14,East,98,0.0,0.0,71,0.00,CLR,,0.00,WeatherDisplay:10.37,2013-03-01 23:59:00,
2013-03-01 18:04:00,37.9,29.3,30.14,East,98,0.0,0.0,71,0.00,CLR,,0.00,WeatherDisplay:10.37,2013-03-02 00:04:00,
2013-03-01 18:09:00,37.9,29.3,30.14,NE,42,1.1,0.0,71,0.00,CLR,,0.00,WeatherDisplay:10.37,2013-03-02 00:09:00,
2013-03-01 18:14:00,37.9,29.3,30.14,NE,42,0.0,0.0,71,0.00,CLR,,0.00,WeatherDisplay:10.37,2013-03-02 00:14:00,
2013-03-01 18:19:00,37.9,29.3,30.14,NE,42,0.0,0.0,71,0.00,CLR,,0.00,WeatherDisplay:10.37,2013-03-02 00:19:00,
2013-03-01 18:24:00,37.8,29.2,30.14,NE,42,0.0,0.0,71,0.00,CLR,,0.00,WeatherDisplay:10.37,2013-03-02 00:24:00,
2013-03-01 18:29:00,37.9,29.3,30.14,NE,42,0.0,0.0,71,0.00,CLR,,0.00,WeatherDisplay:10.37,2013-03-02 00:29:00,
2013-03-01 18:34:00,37.8,29.6,30.14,NE,42,0.0,0.0,72,0.00,CLR,,0.00,WeatherDisplay:10.37,2013-03-02 00:34:00,
2013-03-01 18:39:00,37.8,29.6,30.14,NE,42,0.0,0.0,72,0.00,CLR,,0.00,WeatherDisplay:10.37,2013-03-02 00:39:00,
2013-03-01 18:44:00,37.8,29.6,30.14,NE,42,0.0,0.0,72,0.00,CLR,,0.00,WeatherDisplay:10.37,2013-03-02 00:44:00,
2013-03-01 18:49:00,37.8,29.6,30.14,NE,43,1.1,1.1,72,0.00,CLR,,0.00,WeatherDisplay:10.37,2013-03-02 00:49:00,
2013-03-01 18:54:00,37.8,29.9,30.15,NE,43,1.1,0.0,73,0.00,CLR,,0.00,WeatherDisplay:10.37,2013-03-02 00:54:00,
2013-03-01 18:59:00,37.8,29.9,30.15,NE,43,1.1,0.0,73,0.00,CLR,,0.00,WeatherDisplay:10.37,2013-03-02 00:59:00,
2013-03-01 19:04:00,37.6,30.1,30.15,NE,43,0.0,0.0,74,0.00,CLR,,0.00,WeatherDisplay:10.37,2013-03-02 01:04:00,
2013-03-01 19:09:00,37.6,30.1,30.15,NE,43,1.1,0.0,74,0.00,CLR,,0.00,WeatherDisplay:10.37,2013-03-02 01:09:00,
2013-03-01 19:14:00,37.6,30.7,30.15,NE,43,0.0,0.0,76,0.00,CLR,,0.00,WeatherDisplay:10.37,2013-03-02 01:14:00,
2013-03-01 19:19:00,37.6,30.7,30.15,NE,43,0.0,0.0,76,0.00,CLR,,0.00,WeatherDisplay:10.37,2013-03-02 01:19:00,
2013-03-01 19:24:00,37.6,31.0,30.15,NE,43,0.0,0.0,77,0.00,CLR,,0.00,WeatherDisplay:10.37,2013-03-02 01:24:00,
2013-03-01 19:29:00,37.6,30.7,30.16,NE,43,0.0,0.0,76,0.00,CLR,,0.00,WeatherDisplay:10.37,2013-03-02 01:29:00,
2013-03-01 19:34:00,37.5,30.6,30.16,NE,43,0.0,0.0,76,0.00,CLR,,0.00,WeatherDisplay:10.37,2013-03-02 01:34:00,
2013-03-01 19:40:00,37.5,30.9,30.16,NE,43,0.0,0.0,77,0.00,CLR,,0.00,WeatherDisplay:10.37,2013-03-02 01:40:00,
2013-03-01 19:45:00,37.3,30.7,30.15,NE,43,0.0,0.0,77,0.00,CLR,,0.00,WeatherDisplay:10.37,2013-03-02 01:45:00,
2013-03-01 19:50:00,37.3,31.4,30.15,NE,43,0.0,0.0,79,0.00,CLR,,0.00,WeatherDisplay:10.37,2013-03-02 01:50:00,
2013-03-01 19:55:00,37.3,31.4,30.16,NE,43,0.0,0.0,79,0.00,CLR,,0.00,WeatherDisplay:10.37,2013-03-02 01:55:00,
2013-03-01 20:00:00,37.2,31.3,30.16,NE,43,0.0,0.0,79,0.00,CLR,,0.00,WeatherDisplay:10.37,2013-03-02 02:00:00,
2013-03-01 20:05:00,37.0,31.1,30.16,NE,43,0.0,0.0,79,0.00,CLR,,0.00,WeatherDisplay:10.37,2013-03-02 02:05:00,
2013-03-01 20:10:00,37.0,31.4,30.16,NE,43,0.0,0.0,80,0.00,CLR,,0.00,WeatherDisplay:10.37,2013-03-02 02:10:00,
2013-03-01 20:15:00,36.9,31.6,30.16,NE,43,0.0,0.0,81,0.00,CLR,,0.00,WeatherDisplay:10.37,2013-03-02 02:15:00,
2013-03-01 20:20:00,36.8,31.8,30.16,NE,43,0.0,0.0,82,0.00,CLR,,0.00,WeatherDisplay:10.37,2013-03-02 02:20:00,
2013-03-01 20:25:00,36.6,31.9,30.16,NE,43,0.0,0.0,83,0.00,CLR,,0.00,WeatherDisplay:10.37,2013-03-02 02:25:00,
2013-03-01 20:30:00,36.5,31.8,30.16,NE,43,0.0,0.0,83,0.00,CLR,,0.00,WeatherDisplay:10.37,2013-03-02 02:30:00,
2013-03-01 20:35:00,36.3,31.9,30.16,NE,43,1.1,1.1,84,0.00,CLR,,0.00,WeatherDisplay:10.37,2013-03-02 02:35:00,
2013-03-01 20:40:00,36.3,32.2,30.16,NE,43,1.1,0.0,85,0.00,CLR,,0.00,WeatherDisplay:10.37,2013-03-02 02:40:00,
2013-03-01 20:45:00,36.2,31.5,30.16,East,84,0.0,0.0,83,0.00,CLR,,0.00,WeatherDisplay:10.37,2013-03-02 02:45:00,
2013-03-01 20:50:00,36.2,31.8,30.16,East,84,0.0,0.0,84,0.00,CLR,,0.00,WeatherDisplay:10.37,2013-03-02 02:50:00,
2013-03-01 20:55:00,36.2,31.8,30.16,East,84,0.0,0.0,84,0.00,CLR,,0.00,WeatherDisplay:10.37,2013-03-02 02:55:00,
2013-03-01 21:00:00,36.0,31.9,30.17,East,84,1.1,1.1,85,0.00,CLR,,0.00,WeatherDisplay:10.37,2013-03-02 03:00:00,
2013-03-01 21:05:00,36.0,31.9,30.16,East,84,0.0,0.0,85,0.00,CLR,,0.00,WeatherDisplay:10.37,2013-03-02 03:05:00,
2013-03-01 21:10:00,35.9,31.8,30.16,East,84,0.0,0.0,85,0.00,CLR,,0.00,WeatherDisplay:10.37,2013-03-02 03:10:00,
2013-03-01 21:15:00,35.8,32.0,30.16,East,84,0.0,0.0,86,0.00,CLR,,0.00,WeatherDisplay:10.37,2013-03-02 03:15:00,
2013-03-01 21:20:00,35.8,32.3,30.16,East,84,0.0,0.0,87,0.00,CLR,,0.00,WeatherDisplay:10.37,2013-03-02 03:20:00,
2013-03-01 21:25:00,35.6,32.1,30.16,East,84,0.0,0.0,87,0.00,CLR,,0.00,WeatherDisplay:10.37,2013-03-02 03:25:00,
2013-03-01 21:30:00,35.5,32.0,30.16,East,84,0.0,0.0,87,0.00,CLR,,0.00,WeatherDisplay:10.37,2013-03-02 03:30:00,
2013-03-01 21:35:00,35.3,31.8,30.16,East,84,0.0,0.0,87,0.00,CLR,,0.00,WeatherDisplay:10.37,2013-03-02 03:35:00,
2013-03-01 21:40:00,35.2,32.0,30.16,East,84,0.0,0.0,88,0.00,CLR,,0.00,WeatherDisplay:10.37,2013-03-02 03:40:00,
2013-03-01 21:45:00,35.2,32.0,30.16,East,84,0.0,0.0,88,0.00,CLR,,0.00,WeatherDisplay:10.37,2013-03-02 03:45:00,
2013-03-01 21:50:00,35.0,32.1,30.16,East,84,1.1,0.0,89,0.00,CLR,,0.00,WeatherDisplay:10.37,2013-03-02 03:50:00,
2013-03-01 21:55:00,35.0,31.8,30.15,East,84,0.0,0.0,88,0.00,CLR,,0.00,WeatherDisplay:10.37,2013-03-02 03:55:00,
2013-03-01 22:00:00,35.0,32.1,30.15,East,84,0.0,0.0,89,0.00,CLR,,0.00,WeatherDisplay:10.37,2013-03-02 04:00:00,
2013-03-01 22:05:00,35.0,32.1,30.15,East,84,0.0,0.0,89,0.00,CLR,,0.00,WeatherDisplay:10.37,2013-03-02 04:05:00,
2013-03-01 22:10:00,35.0,32.1,30.15,East,84,0.0,0.0,89,0.00,CLR,,0.00,WeatherDisplay:10.37,2013-03-02 04:10:00,
2013-03-01 22:15:00,35.0,32.1,30.14,East,84,1.1,0.0,89,0.00,CLR,,0.00,WeatherDisplay:10.37,2013-03-02 04:15:00,
2013-03-01 22:20:00,35.0,31.8,30.14,East,84,0.0,0.0,88,0.00,CLR,,0.00,WeatherDisplay:10.37,2013-03-02 04:20:00,
2013-03-01 22:25:00,35.0,31.8,30.14,East,84,0.0,0.0,88,0.00,CLR,,0.00,WeatherDisplay:10.37,2013-03-02 04:25:00,
2013-03-01 22:30:00,35.0,31.2,30.14,East,84,0.0,0.0,86,0.00,CLR,,0.00,WeatherDisplay:10.37,2013-03-02 04:30:00,
2013-03-01 22:35:00,35.2,31.4,30.14,East,84,0.0,0.0,86,0.00,CLR,,0.00,WeatherDisplay:10.37,2013-03-02 04:35:00,
2013-03-01 22:40:00,35.2,31.1,30.14,ENE,66,3.5,3.5,85,0.00,CLR,,0.00,WeatherDisplay:10.37,2013-03-02 04:40:00,
2013-03-01 22:45:00,35.3,30.9,30.14,ENE,61,0.0,0.0,84,0.00,CLR,,0.00,WeatherDisplay:10.37,2013-03-02 04:45:00,
2013-03-01 22:50:00,35.3,30.9,30.14,ENE,61,0.0,0.0,84,0.00,CLR,,0.00,WeatherDisplay:10.37,2013-03-02 04:50:00,
2013-03-01 22:55:00,35.3,31.2,30.14,ENE,61,0.0,0.0,85,0.00,CLR,,0.00,WeatherDisplay:10.37,2013-03-02 04:55:00,
2013-03-01 23:00:00,35.3,31.2,30.14,ENE,61,0.0,0.0,85,0.00,CLR,,0.00,WeatherDisplay:10.37,2013-03-02 05:00:00,
2013-03-01 23:01:00,35.3,31.2,30.14,ENE,61,1.1,0.0,85,0.00,CLR,,0.00,WeatherDisplay:10.37,2013-03-02 05:01:00,
2013-03-01 23:06:00,35.3,31.5,30.14,ENE,61,0.0,0.0,86,0.00,CLR,,0.00,WeatherDisplay:10.37,2013-03-02 05:06:00,
2013-03-01 23:11:00,35.3,31.8,30.14,ENE,61,0.0,0.0,87,0.00,CLR,,0.00,WeatherDisplay:10.37,2013-03-02 05:11:00,
2013-03-01 23:16:00,35.3,32.1,30.14,ENE,61,0.0,0.0,88,0.00,CLR,,0.00,WeatherDisplay:10.37,2013-03-02 05:16:00,
2013-03-01 23:21:00,35.2,32.0,30.13,ENE,61,0.0,0.0,88,0.00,CLR,,0.00,WeatherDisplay:10.37,2013-03-02 05:21:00,
2013-03-01 23:26:00,35.0,31.8,30.14,ENE,61,0.0,0.0,88,0.00,CLR,,0.00,WeatherDisplay:10.37,2013-03-02 05:26:00,
2013-03-01 23:31:00,35.0,31.8,30.13,ENE,61,0.0,0.0,88,0.00,CLR,,0.00,WeatherDisplay:10.37,2013-03-02 05:31:00,
2013-03-01 23:36:00,34.9,31.7,30.13,ENE,61,0.0,0.0,88,0.00,CLR,,0.00,WeatherDisplay:10.37,2013-03-02 05:36:00,
2013-03-01 23:41:00,34.7,31.5,30.13,ENE,61,0.0,0.0,88,0.00,CLR,,0.00,WeatherDisplay:10.37,2013-03-02 05:41:00,
2013-03-01 23:46:00,34.7,31.5,30.13,ENE,61,0.0,0.0,88,0.00,CLR,,0.00,WeatherDisplay:10.37,2013-03-02 05:46:00,
2013-03-01 23:51:00,34.6,31.4,30.13,ENE,61,0.0,0.0,88,0.00,CLR,,0.00,WeatherDisplay:10.37,2013-03-02 05:51:00,
2013-03-01 23:56:00,34.6,31.7,30.13,ENE,61,0.0,0.0,89,0.00,CLR,,0.00,WeatherDisplay:10.37,2013-03-02 05:56:00,